[[{"header":{"parameterUnit":"m.s-1","parameterCategory":1,"la1":30.2991,"la2":30.254,"lo1":-89.0895,"lo2":-89.0444,"dy":0.0017,"dx":0.0017,"nx":28,"ny":28,"refTime":"2025-08-04T03:00:00:Z","depth":0,"parameterNumber":2,"parameterNumberName":"U-component_of_WINDS"},"data":[0,0,0,0,0,0,0,0,0,0,0,0,0,0,0,0,0,0,0,0,0,0,0,0,0,0,0,0,0,0,0,0,0,0,0,0,0,0,0,0,0,0,0,0,0,0,0,0,0,0,0,0,0,0,0,0,0,0,-3.2252,-3.2253,0,-3.2319,-3.232,-3.232,-3.23,-3.2299,-3.2298,-3.2296,-3.2363,-3.2366,-3.2369,0,0,0,0,0,0,0,0,0,0,0,0,0,-3.2107,-3.211,-3.2252,-3.2253,-3.2254,-3.2319,-3.232,-3.2321,-3.2301,-3.2299,-3.2297,-3.2296,-3.2362,-3.2366,-3.2369,0,0,0,0,0,0,0,0,0,0,0,0,0,-3.2171,-3.2111,-3.2252,-3.2252,-3.2252,-3.2319,-3.232,-3.2321,-3.2301,-3.2299,-3.2297,-3.2295,-3.2361,-3.2365,-3.237,-3.244,0,0,-3.2384,-3.2386,0,0,0,0,0,0,0,0,-3.2168,-3.2177,-3.2251,-3.2252,-3.2253,-3.2299,-3.2293,-3.2361,-3.2301,-3.2282,-3.2296,-3.2294,-3.2343,-3.2349,-3.2366,-3.2443,-3.2446,-3.2384,-3.2387,-3.2389,-3.239,0,0,0,0,0,0,0,-3.2163,-3.2174,-3.2279,-3.2252,-3.2253,-3.2248,-3.2255,-3.2306,-3.2324,-3.2284,-3.2283,-3.2291,-3.2343,-3.2362,-3.2368,-3.2447,-3.2384,-3.2388,-3.2391,-3.2393,-3.2584,-3.2587,0,0,0,0,0,0,-3.2158,-3.217,-3.2276,-3.2281,-3.2204,-3.2252,-3.226,-3.2286,-3.2323,-3.2327,-3.2293,-3.229,-3.2355,-3.2362,-3.237,-3.2454,-3.2389,-3.2393,-3.2396,-3.2582,-3.2585,-3.2587,0,0,0,0,0,0,-3.2155,-3.2168,-3.2274,-3.2225,-3.2238,-3.2257,-3.2287,-3.2289,-3.2307,-3.233,-3.2333,-3.2308,-3.2354,-3.2364,-3.2423,-3.2456,-3.2396,-3.24,-3.2579,-3.2583,-3.2586,-3.2624,0,0,0,0,0,0,-3.2151,-3.2167,-3.2194,-3.2226,-3.2241,-3.2326,-3.2289,-3.2292,-3.2315,-3.2312,-3.2345,-3.2349,-3.2353,-3.2416,-3.2427,-3.2462,-3.2403,-3.2576,-3.2581,-3.2585,-3.262,-3.2628,-3.2636,0,0,0,0,0,-3.2146,-3.2202,-3.2196,-3.2209,-3.2275,-3.2328,-3.2336,-3.2341,-3.2318,-3.2345,-3.236,-3.2348,-3.2451,-3.2422,-3.2435,-3.2471,-3.2574,-3.258,-3.2585,-3.2616,-3.2627,-3.2635,0,0,0,0,0,0,-3.2173,-3.2206,-3.2199,-3.2267,-3.2295,-3.2324,-3.2359,-3.2351,-3.2386,-3.2381,-3.2385,-3.2392,-3.2453,-3.2468,-3.2435,-3.2541,-3.2509,-3.2517,-3.2529,-3.2539,-3.2547,-3.2542,-3.2407,0,0,0,0,0,-3.2187,-3.2228,-3.2254,-3.2311,-3.2325,-3.234,-3.2363,-3.2364,-3.2393,-3.2404,-3.2423,-3.2451,-3.249,-3.2515,-3.2552,-3.2622,-3.2629,-3.2653,-3.2661,-3.2667,-3.2674,-3.2712,-3.2723,-3.2605,-3.2605,-3.2604,0,0,-3.2216,-3.2239,-3.2264,-3.2317,-3.2339,-3.238,-3.235,-3.2395,-3.2426,-3.2411,-3.2468,-3.2483,-3.2514,-3.2579,-3.2609,-3.2593,-3.2708,-3.2674,-3.2679,-3.2682,-3.2719,-3.273,-3.274,-3.2608,-3.2608,-3.2607,0,0,-3.229,-3.2312,-3.2362,-3.2384,-3.2418,-3.2427,-3.2439,-3.247,-3.2479,-3.2537,-3.2526,-3.2563,-3.263,-3.2652,-3.2673,-3.2756,-3.2746,-3.2768,-3.2809,-3.2846,-3.2855,-3.2864,-3.2893,-3.2904,-3.2774,-3.2775,-3.2775,0,-3.2322,-3.2385,-3.2388,-3.2435,-3.2458,-3.2447,-3.2497,-3.2519,-3.2562,-3.2579,-3.2561,-3.2645,-3.2665,-3.2735,-3.2756,-3.2773,-3.2786,-3.2764,-3.2854,-3.2862,-3.287,-3.2898,-3.2909,-3.2777,-3.2777,-3.2777,-3.2776,0,-3.2422,-3.2466,-3.2502,-3.2545,-3.2572,-3.262,-3.2631,-3.2658,-3.2657,-3.2668,-3.2727,-3.2751,-3.2793,-3.2809,-3.2808,-3.2879,-3.2869,-3.2853,-3.2821,-3.2884,-3.291,-3.2921,-3.2781,-3.278,-3.2779,-3.2778,0,0,-3.2515,-3.2559,-3.2573,-3.2592,-3.2628,-3.2661,-3.2709,-3.275,-3.2774,-3.2804,-3.2844,-3.2901,-3.2886,-3.2909,-3.2911,-3.2943,-3.3007,-3.2923,-3.2924,-3.2938,-3.3087,-3.3099,-3.3112,-3.3001,-3.3003,-3.3005,-3.3085,0,-3.2592,-3.2676,-3.2681,-3.2757,-3.2797,-3.2787,-3.2829,-3.2855,-3.2867,-3.2902,-3.2915,-3.2955,-3.2933,-3.2947,-3.2978,-3.2993,-3.3037,-3.2987,-3.3038,-3.304,-3.303,-3.3126,-3.3138,-3.3213,-3.3095,-3.3097,-3.3098,0,-3.2693,-3.2727,-3.2807,-3.2838,-3.2855,-3.2892,-3.293,-3.2964,-3.2994,-3.3,-3.3026,-3.3023,-3.3071,-3.3038,-3.3105,-3.3071,-3.3092,-3.3102,-3.3105,-3.311,-3.3072,-3.3133,-3.3236,-3.3248,-3.3114,-3.3113,-3.3112,0,-3.2753,-3.2818,-3.2875,-3.2892,-3.2929,-3.2955,-3.2972,-3.2999,-3.3024,-3.3057,-3.3073,-3.3111,-3.3132,-3.3162,-3.3169,-3.3144,-3.3236,-3.3203,-3.3242,-3.3242,-3.3262,-3.326,-3.337,-3.3276,-3.3275,-3.3275,-3.3275,0,-3.2838,-3.2888,-3.2902,-3.2937,-3.2992,-3.2997,-3.3051,-3.3066,-3.3091,-3.3128,-3.3122,-3.3157,-3.3164,-3.3201,-3.3206,-3.3261,-3.327,-3.3276,-3.3277,-3.3277,-3.3276,-3.3291,-3.3286,-3.3278,-3.3277,-3.3277,-3.3276,0,-3.2914,-3.2926,-3.2987,-3.3017,-3.3025,-3.3065,-3.309,-3.3124,-3.3134,-3.3182,-3.3193,-3.321,-3.3253,-3.3263,-3.3314,-3.3318,-3.3382,-3.3378,-3.3372,-3.3372,-3.341,-3.3406,-3.3533,-3.355,-3.3444,-3.3445,-3.3446,0,-3.2968,-3.3005,-3.304,-3.3064,-3.3082,-3.3122,-3.3147,-3.3153,-3.318,-3.3217,-3.3246,-3.3288,-3.3321,-3.339,-3.3407,-3.3446,-3.3442,-3.3484,-3.3448,-3.3447,-3.3443,-3.3441,-3.3444,-3.3491,-3.3492,-3.3493,-3.3494,0,-3.3062,-3.3066,-3.3102,-3.3141,-3.3171,-3.3202,-3.3231,-3.3252,-3.3262,-3.3292,-3.3336,-3.3363,-3.3415,-3.3456,-3.3495,-3.3512,-3.3505,-3.3505,-3.3516,-3.3516,-3.3511,-3.3514,-3.3391,-3.3502,-3.3501,-3.35,-3.35,-3.35,-3.3128,-3.3161,-3.319,-3.3231,-3.3254,-3.3282,-3.3315,-3.333,-3.3367,-3.341,-3.3411,-3.3459,-3.3488,-3.354,-3.3559,-3.3596,-3.3583,-3.3599,-3.3603,-3.3607,-3.361,-3.3505,-3.3603,-3.3603,-3.3603,-3.3602,-3.3602,0,-3.3221,-3.324,-3.3278,-3.3319,-3.3351,-3.3342,-3.3374,-3.3402,-3.3444,-3.3472,-3.3505,-3.3556,-3.3596,-3.3617,-3.3657,-3.3683,-3.368,-3.3693,-3.3691,-3.3695,-3.362,-3.3606,-3.3694,-3.3694,-3.3694,-3.3694,-3.3694,-3.3694,-3.3274,-3.333,-3.3337,-3.3404,-3.3422,-3.3469,-3.3488,-3.3514,-3.3536,-3.3593,-3.3627,-3.364,-3.3664,-3.3706,-3.3743,-3.3748,-3.3763,-3.3777,-3.3781,-3.371,-3.37,-3.3691,-3.3679,-3.3781,-3.3781,-3.3853,-3.3854,-3.3854]},{"header":{"parameterUnit":"m.s-1","parameterCategory":1,"la1":30.2991,"la2":30.254,"lo1":-89.0895,"lo2":-89.0444,"dy":0.0017,"dx":0.0017,"nx":28,"ny":28,"refTime":"2025-08-04T03:00:00:Z","depth":0,"parameterNumber":3,"parameterNumberName":"V-component_of_WINDS"},"data":[0,0,0,0,0,0,0,0,0,0,0,0,0,0,0,0,0,0,0,0,0,0,0,0,0,0,0,0,0,0,0,0,0,0,0,0,0,0,0,0,0,0,0,0,0,0,0,0,0,0,0,0,0,0,0,0,0,0,-0.0711,-0.0713,0,-0.0838,-0.0839,-0.0841,-0.0863,-0.0862,-0.0861,-0.086,-0.0993,-0.0997,-0.1002,0,0,0,0,0,0,0,0,0,0,0,0,0,-0.0491,-0.0495,-0.0711,-0.0713,-0.0714,-0.0838,-0.0839,-0.0841,-0.0863,-0.0862,-0.0861,-0.086,-0.0991,-0.0996,-0.1002,0,0,0,0,0,0,0,0,0,0,0,0,0,-0.0599,-0.0496,-0.0711,-0.074,-0.0744,-0.0837,-0.0839,-0.0842,-0.0864,-0.0862,-0.0861,-0.0859,-0.0989,-0.0996,-0.1003,-0.1076,0,0,-0.1023,-0.1026,0,0,0,0,0,0,0,0,-0.0593,-0.0607,-0.0734,-0.0739,-0.0743,-0.0833,-0.081,-0.092,-0.0864,-0.0818,-0.086,-0.0858,-0.0941,-0.0952,-0.0979,-0.1082,-0.1088,-0.1024,-0.1028,-0.1031,-0.1033,0,0,0,0,0,0,0,-0.0586,-0.0602,-0.0761,-0.0736,-0.0742,-0.0748,-0.0761,-0.0831,-0.0887,-0.0822,-0.0824,-0.0839,-0.0943,-0.0972,-0.0982,-0.109,-0.1024,-0.103,-0.1034,-0.1037,-0.126,-0.1261,0,0,0,0,0,0,-0.0572,-0.0596,-0.0757,-0.0765,-0.0662,-0.0753,-0.0768,-0.0806,-0.0886,-0.0897,-0.084,-0.0839,-0.0962,-0.0974,-0.0987,-0.1078,-0.1031,-0.1037,-0.1041,-0.1258,-0.126,-0.1262,0,0,0,0,0,0,-0.0568,-0.0587,-0.0752,-0.0681,-0.0702,-0.0759,-0.0801,-0.0809,-0.0839,-0.09,-0.091,-0.086,-0.0961,-0.0977,-0.1054,-0.1083,-0.104,-0.1046,-0.1256,-0.1258,-0.1261,-0.1262,0,0,0,0,0,0,-0.0561,-0.0585,-0.0613,-0.0681,-0.0706,-0.0816,-0.0802,-0.0813,-0.085,-0.085,-0.0921,-0.0931,-0.0961,-0.1043,-0.106,-0.1092,-0.1052,-0.1253,-0.1257,-0.126,-0.1259,-0.1264,-0.1268,0,0,0,0,0,-0.0553,-0.0609,-0.0614,-0.0634,-0.0742,-0.0818,-0.0832,-0.0864,-0.0852,-0.0881,-0.092,-0.0929,-0.1077,-0.1051,-0.107,-0.1104,-0.1251,-0.1256,-0.126,-0.1257,-0.1263,-0.1268,0,0,0,0,0,0,-0.0544,-0.0618,-0.0625,-0.0704,-0.0754,-0.0821,-0.0859,-0.087,-0.0925,-0.0923,-0.0962,-0.0978,-0.1052,-0.1086,-0.1055,-0.1179,-0.1163,-0.1172,-0.1155,-0.1161,-0.1165,-0.1156,-0.1057,0,0,0,0,0,-0.055,-0.0605,-0.0667,-0.0731,-0.0756,-0.0803,-0.0837,-0.0857,-0.0911,-0.0933,-0.0978,-0.103,-0.1089,-0.1127,-0.1184,-0.1264,-0.128,-0.1297,-0.1301,-0.1304,-0.1312,-0.1356,-0.1365,-0.1276,-0.1276,-0.1276,0,0,-0.0566,-0.0613,-0.0646,-0.073,-0.0772,-0.0828,-0.0821,-0.088,-0.0923,-0.0942,-0.1017,-0.1051,-0.1112,-0.1191,-0.1227,-0.1221,-0.1339,-0.131,-0.1312,-0.1318,-0.1362,-0.137,-0.1377,-0.1279,-0.1278,-0.1278,0,0,-0.0623,-0.0663,-0.0721,-0.0762,-0.0824,-0.0855,-0.0868,-0.0934,-0.0957,-0.1032,-0.1048,-0.1098,-0.1198,-0.1241,-0.1276,-0.1347,-0.1357,-0.1365,-0.1389,-0.1432,-0.1439,-0.1446,-0.1471,-0.148,-0.1371,-0.1371,-0.1371,0,-0.0634,-0.0718,-0.075,-0.0808,-0.0846,-0.0864,-0.0923,-0.0962,-0.1039,-0.1065,-0.1056,-0.1181,-0.1224,-0.1312,-0.1329,-0.1357,-0.1374,-0.1358,-0.1435,-0.1442,-0.1449,-0.1474,-0.1483,-0.1372,-0.1372,-0.1372,-0.1372,0,-0.073,-0.0788,-0.0827,-0.09,-0.0942,-0.1,-0.1041,-0.1079,-0.1095,-0.1127,-0.1203,-0.1254,-0.1322,-0.1344,-0.1361,-0.1435,-0.1429,-0.1427,-0.1412,-0.1457,-0.1481,-0.1491,-0.1373,-0.1372,-0.1372,-0.1372,0,0,-0.0786,-0.0874,-0.0888,-0.0921,-0.099,-0.1036,-0.1095,-0.116,-0.1193,-0.1245,-0.1296,-0.1379,-0.1378,-0.1417,-0.1439,-0.1477,-0.153,-0.1471,-0.1473,-0.1481,-0.1615,-0.1617,-0.1627,-0.1537,-0.1539,-0.154,-0.161,0,-0.0851,-0.0957,-0.0986,-0.1076,-0.113,-0.1148,-0.1199,-0.1247,-0.1278,-0.1329,-0.1363,-0.1422,-0.1415,-0.1439,-0.1477,-0.1516,-0.1558,-0.1511,-0.1586,-0.1588,-0.1571,-0.164,-0.1642,-0.1706,-0.162,-0.1622,-0.1623,0,-0.0942,-0.0995,-0.109,-0.1151,-0.1175,-0.1221,-0.1282,-0.133,-0.1385,-0.1405,-0.1448,-0.1466,-0.1529,-0.1509,-0.1597,-0.1564,-0.1596,-0.1619,-0.1622,-0.1632,-0.1609,-0.1652,-0.1727,-0.1737,-0.1638,-0.1637,-0.1636,0,-0.0974,-0.1069,-0.1138,-0.1166,-0.1239,-0.1271,-0.1303,-0.1356,-0.1393,-0.1447,-0.1471,-0.1532,-0.1565,-0.1612,-0.1646,-0.1629,-0.1731,-0.1714,-0.175,-0.1749,-0.1772,-0.1771,-0.1855,-0.1791,-0.1791,-0.179,-0.179,0,-0.1045,-0.1102,-0.1153,-0.1196,-0.1261,-0.1293,-0.1357,-0.139,-0.1437,-0.1486,-0.1505,-0.1551,-0.1593,-0.1645,-0.1672,-0.174,-0.1755,-0.1774,-0.178,-0.1773,-0.177,-0.1795,-0.1792,-0.1793,-0.1792,-0.1792,-0.1791,0,-0.1093,-0.1129,-0.1205,-0.1267,-0.1284,-0.1329,-0.1383,-0.1425,-0.1455,-0.1518,-0.1535,-0.1583,-0.1645,-0.1683,-0.1762,-0.178,-0.1856,-0.1861,-0.1837,-0.1841,-0.1875,-0.1871,-0.1979,-0.1995,-0.1919,-0.192,-0.192,0,-0.1136,-0.118,-0.1247,-0.1281,-0.1313,-0.1367,-0.1405,-0.1438,-0.1477,-0.1542,-0.1576,-0.1639,-0.1691,-0.1789,-0.1832,-0.1893,-0.1899,-0.1933,-0.1909,-0.19,-0.1901,-0.1898,-0.1903,-0.1937,-0.1938,-0.1938,-0.1939,0,-0.1209,-0.1225,-0.1277,-0.1336,-0.138,-0.1428,-0.1476,-0.1503,-0.1545,-0.1587,-0.165,-0.169,-0.177,-0.1833,-0.1896,-0.193,-0.1942,-0.1946,-0.1957,-0.1951,-0.1936,-0.1945,-0.1849,-0.1944,-0.1943,-0.1943,-0.1943,-0.1942,-0.1257,-0.1297,-0.135,-0.1408,-0.1447,-0.1491,-0.1534,-0.1569,-0.1622,-0.1689,-0.1705,-0.1771,-0.1824,-0.1911,-0.1946,-0.1998,-0.1994,-0.2011,-0.2015,-0.2019,-0.202,-0.1926,-0.201,-0.201,-0.201,-0.201,-0.201,0,-0.1332,-0.1366,-0.1419,-0.1485,-0.1531,-0.1536,-0.1589,-0.1627,-0.1685,-0.1733,-0.1783,-0.1855,-0.1915,-0.1962,-0.2024,-0.2057,-0.2064,-0.2072,-0.2071,-0.2079,-0.202,-0.2004,-0.2066,-0.2066,-0.2066,-0.2066,-0.2066,-0.2066,-0.1376,-0.1445,-0.1466,-0.1554,-0.1588,-0.1652,-0.1682,-0.1723,-0.1761,-0.1841,-0.189,-0.192,-0.1968,-0.2033,-0.2088,-0.2101,-0.2123,-0.213,-0.2144,-0.2089,-0.2083,-0.2077,-0.2062,-0.2135,-0.2135,-0.2198,-0.2199,-0.2199]}]]